TimeEST,TemperatureF,Dew PointF,Humidity,Sea Level PressureIn,VisibilityMPH,Wind Direction,Wind SpeedMPH,Gust SpeedMPH,PrecipitationIn,Events,Conditions,WindDirDegrees,DateUTC
12:53 AM,55.9,53.1,90,30.09,10.0,SSW,9.2,-,N/A,,Clear,210,2013-11-07 05:53:00
1:53 AM,57.0,54.0,89,30.06,10.0,SSW,9.2,-,N/A,,Scattered Clouds,210,2013-11-07 06:53:00
2:53 AM,60.1,55.9,86,30.02,10.0,SSW,15.0,-,N/A,,Overcast,200,2013-11-07 07:53:00
3:53 AM,61.0,57.0,87,30.01,6.0,SW,13.8,23.0,0.00,Rain,Light Rain,220,2013-11-07 08:53:00
4:53 AM,60.1,57.0,90,29.98,10.0,SW,9.2,-,0.00,,Overcast,220,2013-11-07 09:53:00
5:40 AM,60.8,57.2,88,29.94,3.0,South,10.4,-,0.03,Rain,Heavy Rain,190,2013-11-07 10:40:00
5:53 AM,60.1,57.9,93,29.93,5.0,South,12.7,23.0,0.05,Rain,Light Rain,190,2013-11-07 10:53:00
6:39 AM,62.6,59.0,88,29.90,10.0,SSW,17.3,27.6,0.01,Rain,Light Rain,200,2013-11-07 11:39:00
6:53 AM,62.1,59.0,90,29.90,9.0,South,15.0,24.2,0.01,,Overcast,190,2013-11-07 11:53:00
7:53 AM,63.0,60.1,90,29.88,2.0,SSW,20.7,27.6,0.03,Rain,Rain,200,2013-11-07 12:53:00
8:13 AM,62.6,60.8,94,29.88,3.0,WSW,15.0,21.9,0.04,Rain,Rain,240,2013-11-07 13:13:00
8:16 AM,62.6,60.8,94,29.88,1.8,West,11.5,21.9,0.07,Rain,Heavy Rain,260,2013-11-07 13:16:00
8:48 AM,62.6,60.8,94,29.87,1.8,SW,16.1,25.3,0.22,Rain,Rain,230,2013-11-07 13:48:00
8:53 AM,62.1,60.1,93,29.88,1.8,WSW,12.7,24.2,0.23,Rain,Rain,240,2013-11-07 13:53:00
9:00 AM,62.6,59.0,88,29.87,2.0,WSW,13.8,19.6,0.02,Rain,Rain,240,2013-11-07 14:00:00
9:15 AM,62.6,60.8,94,29.87,1.8,WSW,10.4,20.7,0.05,Rain,Rain,250,2013-11-07 14:15:00
9:35 AM,62.6,60.8,94,29.86,2.5,SW,8.1,-,0.11,Rain,Rain,230,2013-11-07 14:35:00
9:46 AM,62.6,60.8,94,29.85,4.0,WSW,6.9,-,0.12,Rain,Light Rain,250,2013-11-07 14:46:00
9:53 AM,62.1,60.1,93,29.85,5.0,WSW,9.2,-,0.12,Rain,Light Rain,250,2013-11-07 14:53:00
10:09 AM,62.6,60.8,94,29.84,1.8,WSW,13.8,21.9,0.03,Rain,Rain,240,2013-11-07 15:09:00
10:16 AM,62.6,60.8,94,29.83,3.0,WSW,15.0,25.3,0.03,Rain,Light Rain,240,2013-11-07 15:16:00
10:53 AM,63.0,61.0,93,29.81,3.0,SW,13.8,21.9,0.09,Rain,Light Rain,220,2013-11-07 15:53:00
11:16 AM,62.6,60.8,94,29.79,3.0,SW,12.7,-,0.03,Rain,Rain,230,2013-11-07 16:16:00
11:53 AM,63.0,61.0,93,29.77,2.0,WSW,9.2,24.2,0.10,Rain,Rain,240,2013-11-07 16:53:00
12:02 PM,62.6,60.8,94,29.76,4.0,WSW,12.7,19.6,0.01,Rain,Light Rain,250,2013-11-07 17:02:00
12:53 PM,63.0,60.1,90,29.73,10.0,WSW,13.8,19.6,0.03,Rain,Light Rain,240,2013-11-07 17:53:00
1:53 PM,61.0,57.9,90,29.72,6.0,WSW,12.7,-,0.08,Rain,Light Rain,240,2013-11-07 18:53:00
2:30 PM,60.8,57.2,88,29.71,2.0,WSW,12.7,17.3,0.06,Rain,Rain,250,2013-11-07 19:30:00
2:40 PM,60.8,57.2,88,29.71,5.0,WSW,8.1,-,0.07,Rain,Light Rain,240,2013-11-07 19:40:00
2:53 PM,61.0,57.9,90,29.72,3.0,WSW,10.4,-,0.10,Rain,Rain,240,2013-11-07 19:53:00
3:53 PM,60.1,57.0,90,29.72,8.0,WSW,9.2,-,0.13,Rain,Light Rain,250,2013-11-07 20:53:00
4:53 PM,57.9,55.9,93,29.73,7.0,WNW,10.4,17.3,0.08,Rain,Light Rain,290,2013-11-07 21:53:00
5:00 PM,57.2,55.4,94,29.72,5.0,WNW,10.4,18.4,0.02,Rain,Rain,290,2013-11-07 22:00:00
5:40 PM,53.6,50.0,88,29.74,10.0,NNW,8.1,-,0.06,Rain,Light Rain,340,2013-11-07 22:40:00
5:53 PM,53.1,50.0,89,29.73,10.0,North,5.8,-,0.06,,Overcast,360,2013-11-07 22:53:00
6:53 PM,53.1,50.0,89,29.73,10.0,NNW,4.6,-,0.00,,Overcast,330,2013-11-07 23:53:00
7:48 PM,51.8,46.4,82,29.75,10.0,NW,10.4,18.4,N/A,,Overcast,310,2013-11-08 00:48:00
7:53 PM,51.1,46.9,86,29.76,10.0,NW,11.5,19.6,N/A,,Overcast,310,2013-11-08 00:53:00
8:11 PM,51.8,46.4,82,29.76,10.0,NW,12.7,20.7,N/A,,Overcast,310,2013-11-08 01:11:00
8:53 PM,48.9,41.0,74,29.77,10.0,NW,15.0,23.0,N/A,,Mostly Cloudy,320,2013-11-08 01:53:00
9:53 PM,48.0,39.9,74,29.79,10.0,NW,12.7,23.0,N/A,,Mostly Cloudy,310,2013-11-08 02:53:00
10:53 PM,46.9,39.0,74,29.81,10.0,NW,12.7,26.5,N/A,,Overcast,320,2013-11-08 03:53:00
11:53 PM,46.0,35.1,66,29.82,10.0,NNW,18.4,25.3,N/A,,Overcast,330,2013-11-08 04:53:00